Phnom Penh, Cambodia

6:29 AM +07 on August 24, 2017 (GMT +0700)
Pochentong International

Weather History for VDPP - February, 2013

Change the Weather History Date:

Thursday, February 28, 2013

  Actual Average Record
Temperature  
Mean Temperature 86 °F -  
Max Temperature 95 °F 90 °F 95 °F (2004)
Min Temperature 78 °F 76 °F 72 °F (2014)
Cooling Degree Days 22    
Growing Degree Days 36 (Base 50)    
Moisture  
Dew Point 68 °F    
Average Humidity 53    
Maximum Humidity 77    
Minimum Humidity 32    
Precipitation  
Precipitation 0.00 in - - ()
Sea Level Pressure  
Sea Level Pressure 29.78 in    
Wind  
Wind Speed 9 mph ()    
Max Wind Speed 14 mph    
Max Gust Speed -    
Visibility 6.0 miles    
Events      
Averages and records for this station are not official NWS values.
T = Trace of Precipitation, MM = Missing Value Source: Averaged Metar Reports

Daily Weather History Graph

Daily Weather History Graph

Search for Another Location

Airport or City:

Trip Planner

Search our weather history database for the weather conditions in past years. The results will help you decide how hot, cold, wet, or windy it might be!

Date:

Astronomy

Feb. 28, 2013 Rise Set
Actual Time 6:16 AM +07 6:10 PM +07
Civil Twilight 5:55 AM +07 6:31 PM +07
Nautical Twilight 5:30 AM +07 6:56 PM +07
Astronomical Twilight 5:05 AM +07 7:20 PM +07
Moon 8:20 PM +07 (2/28) 7:42 AM +07 (2/28)
Length of Visible Light 12h 36m
Length of Day
11h 53m
Waning Gibbous, 94% of the Moon is Illuminated
Feb 28
Waning Gibbous
Mar 5
Last Quarter
Mar 12
New
Mar 20
First Quarter
Mar 27
Full

Hourly Weather History & Observations

Time (+07) Temp. Heat Index Dew Point Humidity Pressure Visibility Wind Dir Wind Speed Gust Speed Precip Events Conditions
12:00 AM 82.4 °F 87.2 °F 71.6 °F 70% 29.80 in 5.6 mi SSE 9.2 mph - N/A   Partly Cloudy
12:30 AM 82.4 °F 86.3 °F 69.8 °F 66% 29.80 in 5.6 mi SSE 10.4 mph - N/A   Partly Cloudy
1:00 AM 82.4 °F 86.3 °F 69.8 °F 66% 29.80 in 5.6 mi South 10.4 mph - N/A   Partly Cloudy
6:00 AM 80.6 °F 83.9 °F 69.8 °F 70% 29.77 in 6.2 mi SSW 8.1 mph - N/A   Partly Cloudy
6:30 AM 80.6 °F 84.6 °F 71.6 °F 74% 29.80 in 6.2 mi SSW 8.1 mph - N/A   Scattered Clouds
7:00 AM 80 °F - 74 °F 77% 29.85 in 6 mi South 4.5 mph - -   Partly Cloudy
7:30 AM 82.4 °F 87.2 °F 71.6 °F 70% 29.83 in 6.2 mi South 6.9 mph - N/A   Mostly Cloudy
8:00 AM 82.4 °F 86.3 °F 69.8 °F 66% 29.83 in 6.2 mi SSW 10.4 mph - N/A   Mostly Cloudy
8:30 AM 84.2 °F 89.6 °F 71.6 °F 66% 29.83 in 6.2 mi South 10.4 mph - N/A   Scattered Clouds
9:00 AM 84.2 °F 89.6 °F 71.6 °F 66% 29.83 in 6.2 mi South 6.9 mph - N/A   Scattered Clouds
9:30 AM 86.0 °F 90.4 °F 69.8 °F 58% 29.86 in 6.2 mi South 9.2 mph - N/A   Scattered Clouds
10:00 AM 86.0 °F 90.4 °F 69.8 °F 58% 29.86 in 6.2 mi SSE 8.1 mph - N/A   Partly Cloudy
10:30 AM 89.6 °F 93.4 °F 68.0 °F 49% 29.83 in 6.2 mi SE 9.2 mph - N/A   Partly Cloudy
11:00 AM 89.6 °F 93.4 °F 68.0 °F 49% 29.83 in 6.2 mi SSE 11.5 mph - N/A   Partly Cloudy
11:30 AM 91.4 °F 94.0 °F 66.2 °F 43% 29.83 in 6.2 mi SE 13.8 mph - N/A   Partly Cloudy
12:00 PM 91.4 °F 94.0 °F 66.2 °F 43% 29.80 in 6.2 mi SSE 12.7 mph - N/A   Scattered Clouds
12:30 PM 93.2 °F 97.7 °F 68.0 °F 44% 29.80 in 6.2 mi SSE 10.4 mph - N/A   Partly Cloudy
1:00 PM 93.2 °F 96.2 °F 66.2 °F 41% 29.77 in 6.2 mi SE 12.7 mph - N/A   Partly Cloudy
1:30 PM 93.2 °F 94.9 °F 64.4 °F 38% 29.74 in 6.2 mi South 8.1 mph - N/A   Partly Cloudy
2:00 PM 95.0 °F 97.0 °F 64.4 °F 36% 29.74 in 6.2 mi South 10.4 mph - N/A   Partly Cloudy
2:30 PM 95.0 °F 96.0 °F 62.6 °F 34% 29.71 in 6.2 mi SE 11.5 mph - N/A   Partly Cloudy
3:00 PM 95.0 °F 95.2 °F 60.8 °F 32% 29.71 in 6.2 mi SE 11.5 mph - N/A   Partly Cloudy
3:30 PM 95.0 °F 96.0 °F 62.6 °F 34% 29.71 in 6.2 mi South 11.5 mph - N/A   Partly Cloudy
4:00 PM 95.0 °F 96.0 °F 62.6 °F 34% 29.71 in 6.2 mi SE 8.1 mph - N/A   Partly Cloudy
4:30 PM 95.0 °F 98.5 °F 66.2 °F 39% 29.71 in 6.2 mi SSE 12.7 mph - N/A   Partly Cloudy
5:00 PM 95.0 °F 98.5 °F 66.2 °F 39% 29.71 in 6.2 mi SSE 9.2 mph - N/A   Partly Cloudy
5:30 PM 93.2 °F 96.2 °F 66.2 °F 41% 29.71 in 6.2 mi South 10.4 mph - N/A   Partly Cloudy
6:00 PM 91.4 °F 95.4 °F 68.0 °F 46% 29.71 in 5.6 mi SSE 9.2 mph - N/A   Partly Cloudy
6:30 PM 91.4 °F 95.4 °F 68.0 °F 46% 29.71 in 5.6 mi South 11.5 mph - N/A   Unknown
7:00 PM 89.6 °F 93.4 °F 68.0 °F 49% 29.71 in 5.6 mi South 8.1 mph - N/A   Unknown
7:30 PM 89.6 °F 94.7 °F 69.8 °F 52% 29.71 in 5.6 mi South 8.1 mph - N/A   Unknown
8:00 PM 87.8 °F 92.6 °F 69.8 °F 55% 29.74 in 5.6 mi South 9.2 mph - N/A   Unknown
8:30 PM 87.8 °F 92.6 °F 69.8 °F 55% 29.77 in 5.6 mi South 9.2 mph - N/A   Unknown
9:00 PM 86.0 °F 90.4 °F 69.8 °F 58% 29.77 in 5.6 mi SSE 8.1 mph - N/A   Unknown
9:30 PM 86.0 °F 90.4 °F 69.8 °F 58% 29.77 in 5.6 mi South 10.4 mph - N/A   Unknown
10:30 PM 84.2 °F 89.6 °F 71.6 °F 66% 29.80 in 5.6 mi SSE 10.4 mph - N/A   Unknown
11:00 PM 82.4 °F 87.2 °F 71.6 °F 70% 29.80 in 5.6 mi SSE 10.4 mph - N/A   Unknown
11:30 PM 82.4 °F 87.2 °F 71.6 °F 70% 29.80 in 5.6 mi SSE 9.2 mph - N/A   Unknown